{"data":{"norad_id":60279,"epoch":"2026-05-25T03:18:43.962048Z","epoch_age_seconds":56391,"freshness":"FRESH","line1":"1 60279U 24132B   26145.13800882 -.00000017  00000+0  11226-4 0  9998","line2":"2 60279  53.1620  57.4343 0001347  90.1201 269.9955 15.31698743103261","mean_motion":15.31698743,"eccentricity":0.0001347,"inclination_deg":53.162,"raan_deg":57.4343,"arg_perigee_deg":90.1201,"mean_anomaly_deg":269.9955,"bstar":1.1226e-5,"rev_number":10326,"period_min":94.013265113713,"perigee_km":469.82119804382,"apogee_km":471.66628651579,"semimajor_km":6848.8807422798,"source":"CELESTRAK","updated_at":"2026-05-25T13:38:19.203665Z"}}